Location: Domachevo
(51.7500°N, 23.6000°E)
Time: 18:03:49
(UTC+03:00)

ISS - Visible Passes

Search period start: 26 September 2018 00:00
Search period end: 06 October 2018 00:00
Orbit: 403 x 408 km, 51.6° (Epoch: 27 September)

Date Brightness Start Highest point End Pass type
(mag) Time Alt. Az. Time Alt. Az. Time Alt. Az.
26 Sep -3.8 21:13:13 10° WSW 21:16:23 65° S 21:16:23 65° S visible
27 Sep -3.5 20:21:30 10° SW 20:24:42 50° SSE 20:26:38 21° E visible
27 Sep -1.6 21:57:50 10° W 21:59:19 24° W 21:59:19 24° W visible
28 Sep -4.0 21:05:57 10° W 21:09:16 85° S 21:09:29 76° ESE visible
29 Sep -3.8 20:14:06 10° WSW 20:17:24 73° SSE 20:19:35 19° E visible
29 Sep -1.8 21:50:35 10° W 21:52:16 27° W 21:52:16 27° W visible
30 Sep -4.0 20:58:41 10° W 21:02:00 89° N 21:02:20 71° E visible
01 Oct -3.9 20:06:47 10° W 20:10:06 88° SSE 20:12:22 19° E visible
01 Oct -1.9 21:43:17 10° W 21:45:03 28° W 21:45:03 28° W visible
02 Oct -4.0 20:51:22 10° W 20:54:41 82° SSW 20:55:04 66° ESE visible
03 Oct -3.8 19:59:26 10° W 20:02:45 90° S 20:05:06 18° E visible
03 Oct -1.8 21:35:58 10° W 21:37:46 27° W 21:37:46 27° W visible
04 Oct -3.7 20:44:00 10° W 20:47:17 62° SSW 20:47:47 52° SSE visible
05 Oct -3.8 19:52:02 10° W 19:55:21 78° SSW 19:57:50 16° ESE visible
05 Oct -1.7 21:28:42 10° W 21:30:30 23° WSW 21:30:30 23° WSW visible
